Location: Pardubice
(50.0330°N, 15.7830°E)
Time: 09:27:09
(UTC+02:00)

Explorer 11/Cluster Stage 4 - All Passes

Search period start: 07 October 2024 00:00
Search period end: 17 October 2024 00:00
Orbit: 464 x 1208 km, 28.8° (Epoch: 06 October)

Date Brightness Start Highest point End Pass type
(mag) Time Alt. Az. Time Alt. Az. Time Alt. Az.
14 Oct - 20:08:24 10° SSW 20:09:55 11° S 20:11:24 10° S visible
15 Oct - 19:48:06 10° SSW 19:50:22 12° S 19:52:31 10° SSE visible
16 Oct - 17:42:13 10° S 17:43:50 11° SSE 17:45:26 10° SSE daylight
16 Oct - 19:28:00 10° SSW 19:30:46 12° S 19:33:24 10° SSE visible
